Location: Knowlton
(51.2333°N, 1.2667°E)
Time: 22:38:45
(UTC+00:00)

ZACube-1 - Pass Details

Date: 28 November 2021
Orbit: 582 x 665 km, 97.6° (Epoch: 21 January)

Event Time Altitude Azimuth Distance (km) Brightness Sun altitude
Rises 04:16:06 0° 15° (NNE) 2,972 ? -29.9°
Reaches altitude 10° 04:18:20 10° 18° (NNE) 2,068 ? -29.6°
Enters shadow 04:20:20 26° 24° (NNE) 1,292 ? -29.3°
